Regional Weather Roundup
Issued by NWS Wakefield, VA

Home | Current Version | Previous Version | Graphics & Text | Print | Product List | Glossary On
Versions: 1 2 3 4 5 6 7 8 9 10 11 12 13 14 15 16 17 18 19 20 21 22 23 24 25 26 27 28 29 30 31 32 33 34 35 36 37 38 39 40 41 42 43 44 45 46 47 48 49 50
520
ASUS41 KAKQ 140715
RWRAKQ

REGIONAL WEATHER ROUNDUP
NATIONAL WEATHER SERVICE WAKEFIELD VA
200 AM EST SUN FEB 14 2016

Note: "fair" indicates few or no clouds below 12,000 feet with no
significant weather and/or obstructions to visibility. * = Denotes
station may not report precipitation (e.g., rain,snow,etc.),
thunder or fog.

VAZ042-051-052>054-056-140800-
NORTHERN VIRGINIA

CITY           SKY/WX    TMP DP  RH WIND       PRES   REMARKS
WASH NATIONAL  FAIR      14  -3  47 NW13G22   30.47S WCI   0
DULLES         FAIR      11  -4  51 W6        30.45S
FORT BELVOIR   FAIR      13  -6  42 W3        30.48R
QUANTICO       FAIR      16  -5  39 NW12      30.50S WCI   3
FREDERICKSBRG* FAIR      12   1  60 NW3       30.49R
STAFFORD*      FAIR      13  -6  42 NW5       30.52R
WARRENTON      FAIR      13   1  59 NW5       30.45S
CULPEPER*      FAIR       8   0  69 CALM      30.47S
MANASSAS*      FAIR      12   0  57 NW10      30.47R WCI  -1
LEESBURG*      FAIR      14   3  62 MISG      30.44S
WINCHESTER     FAIR      12   0  57 NW12G21   30.41S WCI  -2
FRONT ROYAL*   PTSUNNY   12  -4  48 NW3       30.41S
LURAY*         FAIR      12  -4  48 NW16      30.40F WCI  -4
$$

VAZ048-049-060>072-079>083-140800-
CENTRAL AND SOUTH CENTRAL VIRGINIA

CITY           SKY/WX    TMP DP  RH WIND       PRES   REMARKS
RICHMOND       FAIR      13  -3  49 N5        30.48R
CHESTERFIELD*  FAIR      10  -9  40 N5        30.48R
PETERSBURG*    FAIR      15  -4  42 N6        30.48S
HANOVER        FAIR      10   0  63 CALM      30.49R
TAPPAHANNOCK*  FAIR      15  -4  43 CALM      30.49R
QUINTON*       FAIR      14  -4  45 CALM      30.48R
CHARLOTTSVILLE FAIR      12  -7  42 NW3       30.44R
GORDONSVILLE*  FAIR      11  -2  56 NW3       30.45S
ORANGE*        FAIR      16  -4  41 W7        30.46F
LOUISA*        FAIR       5   0  78 CALM      30.44R
BUMPASS*       FAIR      11  -2  55 CALM      30.47R
FARMVILLE*     FAIR      14  -3  47 CALM      30.44F
CREWE*         FAIR      12  -2  52 NW6       30.45F
FORT PICKETT*  FAIR      14  -4  44 N5        30.45S
CHASE CITY*    FAIR      13  -3  48 CALM      30.44S
CLARKSVILLE*   FAIR      18  -2  41 N6        30.45R
SOUTH HILL*    FAIR      13   0  56 N8        30.50S
LAWRENCEVILLE* FAIR      14  -1  52 CALM      30.45S
EMPORIA*       FAIR      14   0  52 NW5       30.48F
$$

VAZ088>098-140800-
SOUTHEAST VIRGINIA

CITY           SKY/WX    TMP DP  RH WIND       PRES   REMARKS
NORFOLK        FAIR      20  -2  38 N15G26    30.46R WCI   6
VIRGINIA BEACH FAIR      22  -4  32 N24G30    30.44S WCI   5
NORFOLK NAVAL  FAIR      19  -2  39 N18G29    30.47S WCI   4
WEST POINT*    FAIR      15  -3  45 N3        30.50S
SALUDA*        FAIR      16  -4  40 NW16G25   30.46F WCI   1
NEWPORT NEWS   FAIR      16  -4  41 N12       30.47R WCI   3
LANGLEY AFB    FAIR      17  -5  37 NW13G22   30.46R WCI   3
FORT EUSTIS    FAIR      17  -3  41 N10G17    30.46R WCI   5
WILLIAMSBURG*  FAIR      18   1  49 N5        30.48S
HR EXEC AP*    FAIR      18  -2  41 N7        30.48R
FRANKLIN*      FAIR      16  -4  39 N5        30.48S
US460-WAKEFLD  FAIR      16  -2  45 N5        30.48R
$$

VAZ020-022-025-037-045-140800-
WEST CENTRAL AND SOUTHWEST VIRGINIA

CITY           SKY/WX    TMP DP  RH WIND       PRES   REMARKS
STAUNTON*      FAIR      13  -3  49 CALM      30.41R
WAYNESBORO*    FAIR       9  -9  42 NW3       30.36S
HOT SPRINGS VA FAIR      -1  -8  71 NW14G21   30.08F WCI -19
LYNCHBURG      FAIR      11  -4  51 N5        30.42F
DANVILLE       FAIR      14   2  58 N7        30.44F
SOUTH BOSTON*  FAIR      15  -5  40 CALM      30.46S
MARTINSVILLE   FAIR       6   0  77 CALM      30.44S
ROANOKE        FAIR      11  -4  51 N5        30.42S
BLACKSBURG     FAIR       8  -2  64 SW3       30.34S
DUBLIN*        FAIR      10  -2  58 N6        30.33S
MARION*        FAIR       9  -3  57 CALM      30.31R
HILLSVILLE*    FAIR       8  -2  65 NW8       30.24R
RICHLANDS*     FAIR       8  -5  56 CALM      30.28S
WISE*          FAIR       9  -4  56 CALM      30.28S
ABINGDON*      FAIR      11   0  61 CALM      30.33R
$$

MDZ021>025-VAZ099-100-140800-
SOUTHERN MARYLAND AND THE DELMARVA PENINSULA

CITY           SKY/WX    TMP DP  RH WIND       PRES   REMARKS
PATUXENT RIVER CLEAR     15  -5  40 NW16      30.46R WCI  -1
BAY BRIDGE APT   N/A     16  -4  41 NW15G21   30.45S WCI   1
LEONARDTOWN    CLEAR     14  -6  41 NW5       30.47S
DOVER          CLEAR     13  -6  42 W15G21    30.40R WCI  -2
GEORGETOWN     CLEAR     14  -6  40 VRB7      30.42S
EASTON         CLEAR     15  -1  47 NW20      30.47S WCI  -2
CAMBRIDGE      PTCLDY    16  -2  45 NW16G28   30.44R WCI   0
SALISBURY      CLEAR     15  -3  44 NW12G22   30.43S WCI   2
OCEAN CITY     CLEAR     14  -3  47 NW14      30.42S WCI  -1
WALLOPS ISLAND FAIR      15  -3  44 NW14G26   30.44R WCI   0
ACCOMACK*      CLOUDY    18  -2  41 NW13G21   30.43F WCI   4
$$

NCZ012>017-030>032-140800-
NORTH CENTRAL AND EASTERN NORTH CAROLINA

CITY           SKY/WX    TMP DP  RH WIND       PRES   REMARKS
ROANOKE RAPIDS FAIR      19   0  42 N7        30.46S
RALEIGH        CLEAR     19  -1  41 CALM      30.44S
ELIZABETH CITY PTCLDY    19   2  47 NW12G21   30.45S WCI   7
AHOSKIE*       PTCLDY    17   0  47 N5        30.47S
EDENTON*       PTCLDY    21   2  43 N7        30.46R
CURRITUCK*     PTCLDY    20   1  45 N9        30.46R
KILL DEVIL HLS PTCLDY    21   2  44 NW6       30.42R
MANTEO         PTCLDY    22   5  47 N15G26    30.43S WCI   9
CAPE HATTERAS  CLEAR     27  10  49 N9G20     30.40R
TARBORO*       FAIR      21   1  42 N6        30.47S
GOLDSBORO      CLEAR     23  -2  33 N8        30.43S
WASHINGTON     CLEAR     20   4  49 N6        30.44S
GREENVILLE     PTCLDY    23   3  42 N7        30.45R
NEW BERN       CLEAR     24   2  38 N12       30.43F WCI  13
WILMINGTON     CLEAR     23   8  52 N7        30.43R
$$

VAZ048-140800-
ELSEWHERE

CITY           SKY/WX    TMP DP  RH WIND       PRES   REMARKS
HARRISBURG PA  PTCLDY    11  -4  51 NW16G25   30.39R WCI  -6
BALTIMORE      PTCLDY    12  -4  48 W12       30.43S WCI  -2
ANNAPOLIS      CLEAR     14  -2  49 W7        30.45R
ANDREWS AFB    FAIR      13  -3  48 NW15      30.43S WCI  -3
PHILADELPHIA   PTCLDY    12 -11  35 NW15      30.40R WCI  -4
HENDERSON NC   CLEAR     17  -6  36 N6        30.43S
GREENSBORO     CLEAR     16  -1  47 CALM      30.40R
ROCKY MOUNT    PTCLDY    20   0  41 N10       30.46R WCI   9
$$

VAZ100-140800-
MARINE

STATION/POSITION TIME  TEMP    WIND        PRES    WAVE   SWELL
                       AIR SEA DIR/SP/G            HT/PER HT/PER
                 (UTC) (F)     (DEG/KT/KT) (MB)    (FT/S) (FT/S)
BRANDYWINE LGT   0600   16     320/ 22/ 26 1028.8R
CAPE MAY NJ      0600   17 33  310/ 15/ 26 1028.5R
LEWES DE         0600   17 33  310/ 25/ 32 1029.6R
15NM E FENWICK I 0650   18 43              1029.0S   6/ 6
OCEAN-CITY-INLET 0612   18 39  340/ 15/ 19 1029.1R
WACHAPREAGUE VA  0600   18 34  300/  4/ 11 1030.6S
GOOSES REEF MD   0700   17 36  320/ 17/ 23 1032.0S   3/ 5
COVE POINT MD    0600   15     350/ 23/ 30 1031.8R
SOLOMONS ISLAND  0600      37                N/A
BISHOPS HEAD MD  0600   16 30  320/ 16/ 21 1030.3R
PINEY POINT MD   0600          340/ 24/ 31   N/A
POTOMAC MD       0700   17 37  320/ 19/ 23 1030.7F   2/ 3
CAMBRIDGE MD     0600   17 34  300/ 16/ 24 1030.2R
LEWISETTA VA     0600   18 34  330/ 17/ 22 1031.6R
RAPPAHANNOCK LGT 0600          320/ 24/ 28 1030.9R
STINGRAY PT      0700   18 38  330/ 19/ 25 1031.9R   2/ 3
YORK RVR RNG VA  0600   19     350/ 21/ 25 1030.7R
YORKTOWN VA      0600   18 39  350/ 14/ 19 1031.6R
JAMESTOWN VA     0700   16 39  350/  8/ 12   N/A     0
DOMINION TERM VA 0600   19     340/  9/ 16 1031.5R
KIPTOPEKE VA     0600      36  350/ 21/ 29   N/A
CHES BAY BRIDGE  0606   21 39  320/ 25/ 31 1030.5R
CAPE HENRY VA    0600   21     330/ 30/ 33   N/A
CHESAPEAKE LGHT  0600   20     330/ 28/ 33 1030.9R
WILLOUBY STN VA  0600   20     330/ 17/ 20 1032.1R
1ST LANDING BUOY 0700      40                N/A     4/ 4
CAPE CHARLES BUO 0656      41                N/A     4/ 4   2/11
OFFSHORE WE BUOY 0651      45                N/A     8/ 6   2/11
64NM E OF VA BCH 0550   26 50  330/ 25/ 33 1028.6    9/ 8   2/11
DUCK PIER NC     0600   23     330/ 19/ 23 1029.7R
44100 DUCK FRF   0654      45                N/A     8/ 7
44056 DUCK FRF   0611      42                N/A     5/ 7
OREGON INLET NC  0600   24 37  320/ 13/ 18 1030.0R
HATTERAS NC      0600   29 41  360/ 19/ 23 1028.7R
DIAMOND SHLS NC  0550   33 72  350/ 19/ 29 1028.3    6/ 5
$$




USA.gov is the U.S. government's official web portal to all federal, state and local government web resources and services.